Location: Lake Lucerne
(45.5315°N, 88.8489°W)
Time: 04:47:23
(UTC-05:00)

Tiangong 2 - Visible Passes

Search period start: 27 May 2018 00:00
Search period end: 06 June 2018 00:00
Orbit: 382 x 385 km, 42.8° (Epoch: 27 May)

Date Brightness Start Highest point End Pass type
(mag) Time Alt. Az. Time Alt. Az. Time Alt. Az.
27 May 1.6 22:32:13 10° W 22:35:11 38° SSW 22:35:15 38° S visible
28 May 1.4 21:32:23 10° W 21:35:27 47° S 21:38:01 13° ESE visible
28 May 3.4 23:09:20 10° WSW 23:10:12 15° WSW 23:10:12 15° WSW visible
29 May 2.2 22:09:18 10° W 22:12:06 29° SSW 22:12:56 25° S visible
30 May 1.8 21:09:24 10° W 21:12:23 39° SSW 21:15:22 10° ESE visible
30 May 3.5 22:46:52 10° WSW 22:47:50 13° SW 22:47:50 13° SW visible
31 May 2.8 21:46:31 10° WSW 21:48:58 21° SSW 21:50:34 15° SSE visible
02 Jun 3.4 21:23:59 10° WSW 21:25:45 14° SSW 21:27:30 10° S visible
